| time (UTC) | temp F | wind direction | speed knots | gust knots | rain 1hr in | rain 24hr in | rain mn in | humidity % | barometer mb |
| 20260906234541 | 78 | 74 | 2.6 | 9.6 | 0.00 | 0.25 | 0.25 | 87 | 1010.4 |
| 20260906234023 | 79 | 96 | 5.2 | 12.2 | 0.00 | 0.25 | 0.25 | 86 | 1010.3 |
| 20260906233518 | 80 | 84 | 6.1 | 12.2 | 0.00 | 0.25 | 0.25 | 85 | 1010.4 |
| 20260906233043 | 80 | 90 | 5.2 | 10.4 | 0.00 | 0.25 | 0.25 | 85 | 1010.4 |
| 20260906232528 | 81 | 67 | 6.1 | 10.4 | 0.00 | 0.25 | 0.25 | 83 | 1010.3 |
| 20260906232024 | 81 | 42 | 6.1 | 9.6 | 0.00 | 0.25 | 0.25 | 82 | 1010.2 |
| 20260906231547 | 81 | 42 | 3.5 | 11.3 | 0.00 | 0.25 | 0.25 | 83 | 1010.2 |
| 20260906231021 | 81 | 84 | 7.8 | 13.0 | 0.00 | 0.25 | 0.25 | 82 | 1010.3 |
| 20260906230521 | 82 | 101 | 7.0 | 14.8 | 0.00 | 0.25 | 0.25 | 81 | 1010.1 |
| 20260906230043 | 82 | 74 | 8.7 | 14.8 | 0.00 | 0.25 | 0.25 | 80 | 1010.2 |
| 20260906225522 | 83 | 67 | 8.7 | 14.8 | 0.00 | 0.25 | 0.25 | 79 | 1010.1 |
| 20260906225023 | 85 | 59 | 7.8 | 12.2 | 0.00 | 0.25 | 0.25 | 77 | 1010.1 |
| 20260906224545 | 88 | 50 | 2.6 | 9.6 | 0.00 | 0.25 | 0.25 | 73 | 1010.0 |
| 20260906224018 | 89 | 312 | 2.6 | 8.7 | 0.00 | 0.25 | 0.25 | 72 | 1009.8 |
| 20260906223520 | 89 | 289 | 4.3 | 8.7 | 0.00 | 0.25 | 0.25 | 71 | 1009.7 |
| 20260906223046 | 89 | 267 | 4.3 | 10.4 | 0.00 | 0.25 | 0.25 | 72 | 1009.5 |
| 20260906222521 | 89 | 254 | 6.1 | 10.4 | 0.00 | 0.25 | 0.25 | 72 | 1009.3 |
| 20260906222025 | 89 | 258 | 7.0 | 10.4 | 0.00 | 0.25 | 0.25 | 71 | 1009.2 |
| 20260906221549 | 89 | 271 | 4.3 | 12.2 | 0.00 | 0.25 | 0.25 | 71 | 1009.3 |
| 20260906221024 | 89 | 247 | 7.0 | 12.2 | 0.00 | 0.25 | 0.25 | 70 | 1009.2 |
| 20260906220525 | 89 | 271 | 7.8 | 11.3 | 0.00 | 0.25 | 0.25 | 71 | 1009.2 |
| 20260906220047 | 89 | 282 | 7.0 | 10.4 | 0.00 | 0.25 | 0.25 | 71 | 1009.3 |
| 20260906215522 | 90 | 240 | 7.8 | 11.3 | 0.00 | 0.25 | 0.25 | 71 | 1009.3 |
| 20260906215023 | 89 | 271 | 5.2 | 11.3 | 0.00 | 0.25 | 0.25 | 71 | 1009.5 |
| 20260906214543 | 89 | 245 | 6.1 | 11.3 | 0.00 | 0.25 | 0.25 | 71 | 1009.4 |
| 20260906214019 | 89 | 255 | 7.0 | 11.3 | 0.00 | 0.25 | 0.25 | 73 | 1009.3 |
| 20260906213520 | 89 | 284 | 3.5 | 8.7 | 0.00 | 0.25 | 0.25 | 72 | 1009.2 |
| 20260906213045 | 88 | 267 | 6.1 | 8.7 | 0.00 | 0.25 | 0.25 | 74 | 1009.0 |
| 20260906212524 | 87 | 294 | 4.3 | 8.7 | 0.00 | 0.25 | 0.25 | 77 | 1009.1 |
| 20260906212025 | 87 | 265 | 4.3 | 8.7 | 0.03 | 0.25 | 0.25 | 78 | 1009.1 |
| 20260906211542 | 88 | 306 | 2.6 | 6.1 | 0.09 | 0.25 | 0.25 | 84 | 1009.4 |
| 20260906211026 | 87 | 0 | 0.9 | 3.5 | 0.18 | 0.25 | 0.25 | 85 | 1009.5 |
| 20260906210524 | 87 | 71 | 0.0 | 3.5 | 0.25 | 0.25 | 0.25 | 81 | 1009.3 |
| 20260906210044 | 87 | 171 | 0.9 | 4.3 | 0.25 | 0.25 | 0.25 | 88 | 1009.2 |
| 20260906205520 | 85 | 119 | 0.9 | 4.3 | 0.25 | 0.25 | 0.25 | 90 | 1009.2 |
| 20260906205019 | 85 | 0 | 1.7 | 4.3 | 0.25 | 0.25 | 0.25 | 92 | 1009.4 |
| 20260906204555 | 82 | 122 | 0.9 | 4.3 | 0.25 | 0.25 | 0.25 | 92 | 1009.4 |
| 20260906204018 | 81 | 126 | 0.9 | 3.5 | 0.25 | 0.25 | 0.25 | 93 | 1009.4 |
| 20260906203525 | 79 | 146 | 0.9 | 11.3 | 0.25 | 0.25 | 0.25 | 93 | 1009.6 |
| 20260906203051 | 78 | 221 | 2.6 | 13.9 | 0.25 | 0.25 | 0.25 | 92 | 1009.7 |
| 20260906202524 | 78 | 40 | 6.1 | 13.9 | 0.24 | 0.24 | 0.24 | 91 | 1009.8 |
| 20260906202030 | 78 | 49 | 4.3 | 11.3 | 0.22 | 0.22 | 0.22 | 89 | 1009.8 |
| 20260906201548 | 82 | 36 | 3.5 | 10.4 | 0.15 | 0.15 | 0.15 | 87 | 1009.9 |
| 20260906201027 | 86 | 22 | 0.9 | 5.2 | 0.05 | 0.05 | 0.05 | 85 | 1010.1 |
| 20260906200524 | 88 | 282 | 1.7 | 3.5 | 0.00 | 0.00 | 0.00 | 78 | 1010.0 |
| 20260906200043 | 89 | 72 | 0.9 | 3.5 | 0.00 | 0.00 | 0.00 | 81 | 1009.9 |
| 20260906195520 | 88 | 220 | 0.9 | 4.3 | 0.00 | 0.00 | 0.00 | 79 | 1010.0 |
| 20260906195018 | 87 | 235 | 0.9 | 4.3 | 0.00 | 0.00 | 0.00 | 83 | 1010.1 |
| 20260906194543 | 84 | 0 | 0.0 | 3.5 | 0.00 | 0.00 | 0.00 | 83 | 1010.2 |
| 20260906194018 | 84 | 227 | 0.0 | 10.4 | 0.00 | 0.00 | 0.00 | 81 | 1010.3 |
| 20260906193524 | 85 | 225 | 0.9 | 13.0 | 0.00 | 0.00 | 0.00 | 80 | 1010.3 |
| 20260906193046 | 85 | 235 | 3.5 | 14.8 | 0.00 | 0.00 | 0.00 | 74 | 1010.3 |
| 20260906192523 | 86 | 253 | 9.6 | 14.8 | 0.00 | 0.00 | 0.00 | 74 | 1010.4 |
| 20260906192025 | 87 | 232 | 2.6 | 8.7 | 0.00 | 0.00 | 0.00 | 77 | 1010.3 |
| 20260906191544 | 88 | 263 | 2.6 | 8.7 | 0.00 | 0.00 | 0.00 | 76 | 1010.2 |
| 20260906191024 | 89 | 258 | 3.5 | 8.7 | 0.00 | 0.00 | 0.00 | 74 | 1010.3 |
| 20260906190523 | 91 | 249 | 1.7 | 6.1 | 0.00 | 0.00 | 0.00 | 75 | 1010.3 |
| 20260906190043 | 92 | 220 | 0.9 | 8.7 | 0.00 | 0.00 | 0.00 | 75 | 1010.4 |
| 20260906185520 | 92 | 265 | 1.7 | 8.7 | 0.00 | 0.00 | 0.00 | 73 | 1010.3 |
| 20260906185026 | 92 | 265 | 0.9 | 7.8 | 0.00 | 0.00 | 0.00 | 74 | 1010.4 |
| 20260906184540 | 92 | 223 | 1.7 | 7.0 | 0.00 | 0.00 | 0.00 | 71 | 1010.5 |
| 20260906184027 | 92 | 221 | 0.9 | 9.6 | 0.00 | 0.00 | 0.00 | 73 | 1010.5 |
| 20260906183526 | 91 | 0 | 0.9 | 9.6 | 0.00 | 0.00 | 0.00 | 74 | 1010.5 |
| 20260906183042 | 91 | 229 | 6.1 | 10.4 | 0.00 | 0.00 | 0.00 | 72 | 1010.7 |
| 20260906182527 | 91 | 239 | 3.5 | 10.4 | 0.00 | 0.00 | 0.00 | 67 | 1010.7 |
| 20260906182021 | 91 | 271 | 6.1 | 10.4 | 0.00 | 0.00 | 0.00 | 68 | 1010.7 |
| 20260906181549 | 92 | 249 | 7.8 | 9.6 | 0.00 | 0.00 | 0.00 | 70 | 1010.8 |
| 20260906181020 | 92 | 244 | 5.2 | 11.3 | 0.00 | 0.00 | 0.00 | 70 | 1010.8 |
| 20260906180521 | 92 | 252 | 3.5 | 11.3 | 0.00 | 0.00 | 0.00 | 74 | 1010.8 |
| 20260906175526 | 91 | 277 | 3.5 | 7.0 | 0.00 | 0.00 | 0.00 | 70 | 1010.8 |
| 20260906175024 | 90 | 0 | 1.7 | 7.8 | 0.00 | 0.00 | 0.00 | 71 | 1010.9 |
| 20260906174539 | 90 | 277 | 5.2 | 8.7 | 0.00 | 0.00 | 0.00 | 71 | 1011.0 |
| 20260906174024 | 88 | 243 | 5.2 | 10.4 | 0.00 | 0.00 | 0.00 | 72 | 1011.1 |
| 20260906173524 | 90 | 240 | 7.0 | 10.4 | 0.00 | 0.00 | 0.00 | 70 | 1011.2 |
| 20260906173048 | 90 | 274 | 4.3 | 11.3 | 0.00 | 0.00 | 0.00 | 71 | 1011.4 |
| 20260906172522 | 90 | 252 | 3.5 | 11.3 | 0.00 | 0.00 | 0.00 | 70 | 1011.5 |
| 20260906172022 | 91 | 263 | 5.2 | 11.3 | 0.00 | 0.00 | 0.00 | 68 | 1011.7 |
| 20260906171550 | 90 | 288 | 1.7 | 10.4 | 0.00 | 0.00 | 0.00 | 75 | 1011.6 |
| 20260906171021 | 90 | 272 | 6.1 | 10.4 | 0.00 | 0.00 | 0.00 | 70 | 1011.7 |
| 20260906170518 | 90 | 247 | 4.3 | 10.4 | 0.00 | 0.00 | 0.00 | 72 | 1011.6 |
| 20260906170045 | 90 | 227 | 1.7 | 7.8 | 0.00 | 0.00 | 0.00 | 72 | 1011.6 |
| 20260906165524 | 90 | 265 | 5.2 | 9.6 | 0.00 | 0.00 | 0.00 | 72 | 1011.7 |
| 20260906165024 | 89 | 293 | 5.2 | 9.6 | 0.00 | 0.00 | 0.00 | 71 | 1011.7 |
| 20260906164549 | 89 | 0 | 0.0 | 9.6 | 0.00 | 0.00 | 0.00 | 77 | 1011.9 |
| 20260906164028 | 89 | 195 | 3.5 | 9.6 | 0.00 | 0.00 | 0.00 | 74 | 1011.9 |
| 20260906163524 | 89 | 215 | 1.7 | 8.7 | 0.00 | 0.00 | 0.00 | 76 | 1012.1 |
| 20260906163056 | 89 | 261 | 4.3 | 8.7 | 0.00 | 0.00 | 0.00 | 75 | 1012.0 |
| 20260906162523 | 89 | 0 | 0.0 | 7.8 | 0.00 | 0.00 | 0.00 | 74 | 1012.1 |
| 20260906162023 | 89 | 217 | 3.5 | 7.8 | 0.00 | 0.00 | 0.00 | 77 | 1012.1 |
| 20260906161550 | 88 | 252 | 4.3 | 7.0 | 0.00 | 0.00 | 0.00 | 74 | 1012.2 |
| 20260906161021 | 88 | 0 | 1.7 | 7.8 | 0.00 | 0.00 | 0.00 | 76 | 1012.4 |
| 20260906160525 | 88 | 134 | 3.5 | 7.8 | 0.00 | 0.00 | 0.00 | 76 | 1012.4 |
| 20260906160055 | 87 | 248 | 2.6 | 7.8 | 0.00 | 0.00 | 0.00 | 76 | 1012.5 |
| 20260906155527 | 87 | 273 | 3.5 | 7.8 | 0.00 | 0.00 | 0.00 | 73 | 1012.6 |
| 20260906155029 | 88 | 279 | 2.6 | 7.0 | 0.00 | 0.00 | 0.00 | 76 | 1012.5 |
| 20260906154541 | 87 | 247 | 2.6 | 7.0 | 0.00 | 0.00 | 0.00 | 77 | 1012.6 |
| 20260906154024 | 85 | 236 | 3.5 | 7.0 | 0.00 | 0.00 | 0.00 | 76 | 1012.7 |
| 20260906153526 | 86 | 277 | 1.7 | 7.0 | 0.00 | 0.00 | 0.00 | 76 | 1012.7 |
| 20260906153043 | 87 | 314 | 2.6 | 7.0 | 0.00 | 0.00 | 0.00 | 77 | 1012.8 |
| 20260906152525 | 87 | 290 | 1.7 | 6.1 | 0.00 | 0.00 | 0.00 | 78 | 1012.8 |
| 20260906152024 | 86 | 273 | 3.5 | 6.1 | 0.00 | 0.00 | 0.00 | 78 | 1012.9 |
| 20260906151545 | 86 | 342 | 0.9 | 6.1 | 0.00 | 0.00 | 0.00 | 79 | 1013.0 |
| 20260906151018 | 86 | 329 | 0.9 | 6.1 | 0.00 | 0.00 | 0.00 | 78 | 1012.9 |
| 20260906150525 | 86 | 284 | 2.6 | 8.7 | 0.00 | 0.00 | 0.00 | 79 | 1013.0 |
| 20260906150040 | 86 | 231 | 3.5 | 8.7 | 0.00 | 0.00 | 0.00 | 77 | 1013.0 |
| 20260906145524 | 85 | 292 | 3.5 | 8.7 | 0.00 | 0.00 | 0.00 | 81 | 1012.9 |
| 20260906145024 | 84 | 271 | 2.6 | 7.0 | 0.00 | 0.00 | 0.00 | 81 | 1012.9 |
| 20260906144546 | 85 | 282 | 2.6 | 7.0 | 0.00 | 0.00 | 0.00 | 81 | 1013.0 |
| 20260906144022 | 85 | 300 | 1.7 | 6.1 | 0.00 | 0.00 | 0.00 | 84 | 1012.9 |
| 20260906143523 | 86 | 270 | 1.7 | 6.1 | 0.00 | 0.00 | 0.00 | 82 | 1012.9 |
| 20260906143050 | 85 | 0 | 0.9 | 7.8 | 0.00 | 0.00 | 0.00 | 87 | 1013.0 |
| 20260906142520 | 84 | 267 | 3.5 | 7.8 | 0.00 | 0.00 | 0.00 | 84 | 1013.0 |
| 20260906142025 | 84 | 292 | 0.9 | 7.8 | 0.00 | 0.00 | 0.00 | 85 | 1013.0 |
| 20260906141549 | 84 | 281 | 3.5 | 7.8 | 0.00 | 0.00 | 0.00 | 83 | 1013.0 |
| 20260906141025 | 85 | 268 | 4.3 | 6.1 | 0.00 | 0.00 | 0.00 | 86 | 1012.9 |
| 20260906140525 | 84 | 0 | 0.0 | 5.2 | 0.00 | 0.00 | 0.00 | 87 | 1012.9 |
| 20260906140055 | 84 | 301 | 1.7 | 5.2 | 0.00 | 0.00 | 0.00 | 86 | 1013.1 |
| 20260906135523 | 84 | 269 | 1.7 | 5.2 | 0.00 | 0.01 | 0.00 | 86 | 1013.0 |
| 20260906135023 | 83 | 278 | 2.6 | 5.2 | 0.00 | 0.01 | 0.00 | 87 | 1013.1 |
| 20260906134543 | 83 | 243 | 0.9 | 3.5 | 0.00 | 0.01 | 0.00 | 88 | 1013.1 |
| 20260906134023 | 83 | 0 | 0.9 | 5.2 | 0.00 | 0.01 | 0.00 | 89 | 1013.0 |
| 20260906133526 | 82 | 0 | 0.0 | 5.2 | 0.00 | 0.01 | 0.00 | 90 | 1013.0 |
| 20260906133106 | 82 | 269 | 1.7 | 5.2 | 0.00 | 0.01 | 0.00 | 88 | 1012.9 |
| 20260906132518 | 82 | 267 | 1.7 | 3.5 | 0.00 | 0.01 | 0.00 | 90 | 1012.9 |
| 20260906132018 | 81 | 269 | 1.7 | 3.5 | 0.00 | 0.01 | 0.00 | 90 | 1013.1 |
| 20260906131541 | 81 | 264 | 1.7 | 3.5 | 0.00 | 0.01 | 0.00 | 91 | 1013.1 |
| 20260906131024 | 80 | 282 | 0.9 | 5.2 | 0.00 | 0.01 | 0.00 | 92 | 1013.3 |
| 20260906130524 | 80 | 252 | 1.7 | 5.2 | 0.00 | 0.01 | 0.00 | 93 | 1013.4 |
| 20260906130104 | 80 | 270 | 1.7 | 2.6 | 0.00 | 0.01 | 0.00 | 94 | 1013.3 |
| 20260906125523 | 79 | 270 | 0.9 | 2.6 | 0.00 | 0.01 | 0.00 | 95 | 1013.1 |
| 20260906125023 | 79 | 266 | 0.0 | 3.5 | 0.00 | 0.01 | 0.00 | 96 | 1013.2 |
| 20260906124544 | 78 | 0 | 0.0 | 3.5 | 0.00 | 0.01 | 0.00 | 96 | 1013.1 |
| 20260906124023 | 78 | 240 | 0.0 | 3.5 | 0.00 | 0.01 | 0.00 | 97 | 1013.2 |
| 20260906123521 | 77 | 0 | 0.0 | 0.0 | 0.00 | 0.01 | 0.00 | 97 | 1013.1 |
| 20260906123041 | 77 | 0 | 0.0 | 0.0 | 0.00 | 0.01 | 0.00 | 97 | 1013.0 |
| 20260906122524 | 77 | 0 | 0.0 | 0.0 | 0.00 | 0.01 | 0.00 | 97 | 1013.0 |
| 20260906122021 | 76 | 0 | 0.0 | 0.0 | 0.00 | 0.01 | 0.00 | 97 | 1012.9 |
| 20260906121547 | 76 | 0 | 0.0 | 0.0 | 0.00 | 0.01 | 0.00 | 97 | 1012.9 |
| 20260906121024 | 76 | 0 | 0.0 | 0.0 | 0.00 | 0.01 | 0.00 | 97 | 1012.7 |
| 20260906120524 | 75 | 0 | 0.0 | 0.0 | 0.00 | 0.01 | 0.00 | 97 | 1012.6 |
| 20260906120043 | 75 | 0 | 0.0 | 0.0 | 0.00 | 0.01 | 0.00 | 97 | 1012.6 |
| 20260906115524 | 75 | 0 | 0.0 | 0.0 | 0.00 | 0.01 | 0.00 | 97 | 1012.6 |
| 20260906115023 | 74 | 0 | 0.0 | 0.0 | 0.00 | 0.01 | 0.00 | 97 | 1012.5 |
| 20260906114551 | 74 | 0 | 0.0 | 0.0 | 0.00 | 0.01 | 0.00 | 97 | 1012.5 |
| 20260906114020 | 73 | 0 | 0.0 | 0.0 | 0.00 | 0.01 | 0.00 | 97 | 1012.4 |
| 20260906113524 | 73 | 0 | 0.0 | 0.0 | 0.00 | 0.01 | 0.00 | 97 | 1012.5 |
| 20260906113042 | 73 | 0 | 0.0 | 0.0 | 0.00 | 0.01 | 0.00 | 97 | 1012.4 |
| 20260906112524 | 74 | 0 | 0.0 | 0.0 | 0.00 | 0.01 | 0.00 | 97 | 1012.3 |
| 20260906112026 | 73 | 0 | 0.0 | 0.0 | 0.00 | 0.01 | 0.00 | 97 | 1012.3 |
| 20260906111600 | 73 | 0 | 0.0 | 0.0 | 0.00 | 0.01 | 0.00 | 97 | 1012.3 |
| 20260906111020 | 73 | 0 | 0.0 | 0.0 | 0.00 | 0.01 | 0.00 | 97 | 1012.1 |
| 20260906110523 | 73 | 0 | 0.0 | 0.0 | 0.00 | 0.01 | 0.00 | 97 | 1012.1 |
| 20260906110042 | 73 | 0 | 0.0 | 0.0 | 0.00 | 0.01 | 0.00 | 97 | 1012.0 |
| 20260906105524 | 73 | 0 | 0.0 | 0.0 | 0.00 | 0.01 | 0.00 | 97 | 1011.9 |
| 20260906105022 | 74 | 0 | 0.0 | 0.0 | 0.00 | 0.01 | 0.00 | 96 | 1011.9 |
| 20260906104543 | 73 | 0 | 0.0 | 0.0 | 0.00 | 0.01 | 0.00 | 97 | 1011.7 |
| 20260906104020 | 73 | 0 | 0.0 | 0.0 | 0.00 | 0.01 | 0.00 | 96 | 1011.7 |
| 20260906103525 | 73 | 0 | 0.0 | 0.0 | 0.00 | 0.01 | 0.00 | 96 | 1011.6 |
| 20260906103040 | 73 | 0 | 0.0 | 0.0 | 0.00 | 0.01 | 0.00 | 96 | 1011.6 |
| 20260906102528 | 74 | 0 | 0.0 | 0.0 | 0.00 | 0.01 | 0.00 | 96 | 1011.6 |
| 20260906102024 | 74 | 0 | 0.0 | 0.0 | 0.00 | 0.01 | 0.00 | 96 | 1011.6 |
| 20260906101546 | 73 | 0 | 0.0 | 0.0 | 0.00 | 0.01 | 0.00 | 96 | 1011.5 |
| 20260906101024 | 74 | 0 | 0.0 | 0.0 | 0.00 | 0.01 | 0.00 | 96 | 1011.4 |
| 20260906100526 | 74 | 0 | 0.0 | 0.0 | 0.00 | 0.01 | 0.00 | 96 | 1011.4 |
| 20260906100055 | 74 | 0 | 0.0 | 0.0 | 0.00 | 0.01 | 0.00 | 96 | 1011.3 |
| 20260906095525 | 74 | 0 | 0.0 | 0.0 | 0.00 | 0.01 | 0.00 | 96 | 1011.4 |
| 20260906095018 | 74 | 0 | 0.0 | 0.0 | 0.00 | 0.01 | 0.00 | 96 | 1011.3 |
| 20260906094545 | 74 | 0 | 0.0 | 0.0 | 0.00 | 0.01 | 0.00 | 96 | 1011.3 |
| 20260906094024 | 74 | 0 | 0.0 | 0.0 | 0.00 | 0.01 | 0.00 | 96 | 1011.2 |
| 20260906093525 | 74 | 0 | 0.0 | 0.0 | 0.00 | 0.01 | 0.00 | 96 | 1011.2 |
| 20260906093042 | 74 | 0 | 0.0 | 0.0 | 0.00 | 0.01 | 0.00 | 96 | 1011.1 |
| 20260906092524 | 74 | 0 | 0.0 | 0.0 | 0.00 | 0.01 | 0.00 | 96 | 1011.0 |
| 20260906092024 | 74 | 0 | 0.0 | 0.0 | 0.00 | 0.01 | 0.00 | 96 | 1010.9 |
| 20260906091545 | 74 | 0 | 0.0 | 0.0 | 0.00 | 0.01 | 0.00 | 96 | 1011.0 |
| 20260906091024 | 74 | 0 | 0.0 | 0.0 | 0.00 | 0.01 | 0.00 | 96 | 1010.9 |
| 20260906090524 | 74 | 0 | 0.0 | 0.0 | 0.00 | 0.01 | 0.00 | 96 | 1010.9 |
| 20260906090045 | 74 | 0 | 0.0 | 0.0 | 0.00 | 0.01 | 0.00 | 96 | 1010.8 |
| 20260906085523 | 74 | 0 | 0.0 | 0.0 | 0.00 | 0.01 | 0.00 | 96 | 1010.7 |
| 20260906085020 | 74 | 0 | 0.0 | 0.0 | 0.00 | 0.01 | 0.00 | 96 | 1010.8 |
| 20260906084542 | 74 | 0 | 0.0 | 0.0 | 0.00 | 0.01 | 0.00 | 96 | 1010.8 |
| 20260906084027 | 75 | 0 | 0.0 | 0.0 | 0.00 | 0.01 | 0.00 | 96 | 1010.7 |
| 20260906083524 | 75 | 0 | 0.0 | 0.0 | 0.00 | 0.01 | 0.00 | 96 | 1010.7 |
| 20260906083050 | 75 | 0 | 0.0 | 0.0 | 0.00 | 0.01 | 0.00 | 96 | 1010.7 |
| 20260906082521 | 75 | 0 | 0.0 | 0.0 | 0.00 | 0.01 | 0.00 | 96 | 1010.7 |
| 20260906082023 | 75 | 0 | 0.0 | 0.0 | 0.00 | 0.01 | 0.00 | 96 | 1010.8 |
| 20260906081543 | 75 | 0 | 0.0 | 0.0 | 0.00 | 0.01 | 0.00 | 96 | 1010.8 |
| 20260906081023 | 74 | 0 | 0.0 | 0.0 | 0.00 | 0.01 | 0.00 | 95 | 1010.8 |
| 20260906080523 | 74 | 0 | 0.0 | 0.0 | 0.00 | 0.01 | 0.00 | 95 | 1010.8 |
| 20260906080046 | 75 | 0 | 0.0 | 0.0 | 0.00 | 0.01 | 0.00 | 95 | 1010.8 |
| 20260906075518 | 75 | 0 | 0.0 | 0.0 | 0.00 | 0.01 | 0.00 | 95 | 1010.9 |
| 20260906075020 | 75 | 0 | 0.0 | 0.0 | 0.00 | 0.01 | 0.00 | 95 | 1010.9 |
| 20260906074541 | 75 | 0 | 0.0 | 0.0 | 0.00 | 0.01 | 0.00 | 95 | 1010.8 |
| 20260906074017 | 75 | 0 | 0.0 | 0.0 | 0.00 | 0.01 | 0.00 | 95 | 1010.8 |
| 20260906073525 | 75 | 0 | 0.0 | 0.0 | 0.00 | 0.01 | 0.00 | 95 | 1010.9 |
| 20260906073042 | 75 | 0 | 0.0 | 0.0 | 0.00 | 0.01 | 0.00 | 95 | 1010.7 |
| 20260906072525 | 76 | 0 | 0.0 | 0.0 | 0.00 | 0.01 | 0.00 | 95 | 1010.8 |
| 20260906072024 | 76 | 0 | 0.0 | 0.0 | 0.00 | 0.01 | 0.00 | 95 | 1010.9 |
| 20260906071547 | 76 | 0 | 0.0 | 0.0 | 0.00 | 0.01 | 0.00 | 95 | 1010.9 |
| 20260906071020 | 76 | 0 | 0.0 | 0.0 | 0.00 | 0.01 | 0.00 | 95 | 1010.9 |
| 20260906070523 | 76 | 0 | 0.0 | 0.0 | 0.00 | 0.01 | 0.00 | 95 | 1010.9 |
| 20260906070041 | 76 | 0 | 0.0 | 0.0 | 0.00 | 0.01 | 0.00 | 95 | 1010.9 |
| 20260906065524 | 76 | 0 | 0.0 | 0.0 | 0.00 | 0.01 | 0.00 | 95 | 1011.0 |
| 20260906065021 | 76 | 0 | 0.0 | 0.0 | 0.00 | 0.01 | 0.00 | 95 | 1011.0 |
| 20260906064539 | 76 | 0 | 0.0 | 0.0 | 0.00 | 0.01 | 0.00 | 95 | 1011.1 |
| 20260906064028 | 76 | 0 | 0.0 | 0.0 | 0.00 | 0.01 | 0.00 | 95 | 1011.3 |
| 20260906063523 | 76 | 0 | 0.0 | 0.0 | 0.00 | 0.01 | 0.00 | 95 | 1011.3 |
| 20260906063041 | 76 | 0 | 0.0 | 0.0 | 0.00 | 0.01 | 0.00 | 95 | 1011.3 |
| 20260906062519 | 76 | 0 | 0.0 | 0.0 | 0.00 | 0.01 | 0.00 | 95 | 1011.4 |
| 20260906062021 | 76 | 0 | 0.0 | 0.0 | 0.00 | 0.01 | 0.00 | 95 | 1011.6 |
| 20260906061542 | 76 | 0 | 0.0 | 0.0 | 0.00 | 0.01 | 0.00 | 95 | 1011.6 |
| 20260906061024 | 76 | 0 | 0.0 | 0.0 | 0.00 | 0.01 | 0.00 | 95 | 1011.6 |
| 20260906060524 | 76 | 0 | 0.0 | 0.0 | 0.00 | 0.01 | 0.00 | 95 | 1011.8 |
| 20260906060048 | 76 | 0 | 0.0 | 0.0 | 0.00 | 0.01 | 0.00 | 95 | 1011.9 |
| 20260906055521 | 76 | 0 | 0.0 | 0.0 | 0.00 | 0.01 | 0.00 | 95 | 1011.9 |
| 20260906055024 | 76 | 0 | 0.0 | 0.0 | 0.00 | 0.01 | 0.00 | 95 | 1012.1 |
| 20260906054558 | 76 | 0 | 0.0 | 0.0 | 0.00 | 0.01 | 0.00 | 95 | 1012.1 |
| 20260906054021 | 76 | 0 | 0.0 | 0.0 | 0.00 | 0.01 | 0.00 | 95 | 1012.2 |
| 20260906053524 | 76 | 0 | 0.0 | 0.0 | 0.00 | 0.01 | 0.00 | 94 | 1012.2 |
| 20260906053042 | 77 | 0 | 0.0 | 0.0 | 0.00 | 0.01 | 0.00 | 94 | 1012.3 |
| 20260906052524 | 77 | 0 | 0.0 | 0.0 | 0.00 | 0.01 | 0.00 | 94 | 1012.4 |
| 20260906052024 | 77 | 0 | 0.0 | 0.0 | 0.00 | 0.01 | 0.00 | 94 | 1012.3 |
| 20260906051602 | 77 | 0 | 0.0 | 1.7 | 0.00 | 0.01 | 0.00 | 94 | 1012.3 |
| 20260906051024 | 77 | 0 | 0.0 | 1.7 | 0.00 | 0.01 | 0.00 | 94 | 1012.4 |
| 20260906050525 | 77 | 0 | 0.0 | 3.5 | 0.00 | 0.01 | 0.00 | 94 | 1012.5 |
| 20260906050046 | 77 | 196 | 0.0 | 3.5 | 0.00 | 0.01 | 0.00 | 94 | 1012.6 |
| 20260906045522 | 77 | 159 | 0.9 | 3.5 | 0.00 | 0.01 | 0.00 | 94 | 1012.6 |
| 20260906045019 | 77 | 0 | 0.0 | 0.0 | 0.00 | 0.01 | 0.00 | 94 | 1012.7 |
| 20260906044550 | 77 | 0 | 0.0 | 0.9 | 0.00 | 0.01 | 0.00 | 94 | 1012.7 |
| 20260906044021 | 77 | 0 | 0.0 | 0.9 | 0.00 | 0.01 | 0.00 | 94 | 1012.8 |
| 20260906043519 | 77 | 0 | 0.0 | 0.9 | 0.00 | 0.01 | 0.00 | 94 | 1012.9 |
| 20260906043044 | 77 | 0 | 0.0 | 1.7 | 0.00 | 0.01 | 0.00 | 94 | 1012.8 |
| 20260906042518 | 77 | 0 | 0.0 | 2.6 | 0.00 | 0.01 | 0.00 | 94 | 1012.8 |
| 20260906042021 | 77 | 124 | 0.0 | 2.6 | 0.00 | 0.01 | 0.00 | 94 | 1012.7 |
| 20260906041540 | 77 | 260 | 0.9 | 2.6 | 0.00 | 0.01 | 0.00 | 94 | 1012.7 |
| 20260906041027 | 77 | 260 | 0.0 | 1.7 | 0.00 | 0.01 | 0.00 | 94 | 1012.7 |
| 20260906040524 | 78 | 260 | 0.0 | 1.7 | 0.00 | 0.01 | 0.00 | 94 | 1012.7 |
| 20260906040122 | 78 | 260 | 0.0 | 2.6 | 0.00 | 0.01 | 0.00 | 94 | 1012.6 |
| 20260906035522 | 78 | 260 | 0.9 | 2.6 | 0.00 | 0.01 | 0.01 | 94 | 1012.8 |
| 20260906035022 | 78 | 0 | 0.0 | 0.0 | 0.00 | 0.01 | 0.01 | 94 | 1012.7 |
| 20260906034545 | 78 | 0 | 0.0 | 0.9 | 0.00 | 0.01 | 0.01 | 94 | 1012.8 |
| 20260906034025 | 78 | 0 | 0.0 | 1.7 | 0.00 | 0.01 | 0.01 | 94 | 1012.8 |
| 20260906033524 | 78 | 0 | 0.9 | 1.7 | 0.00 | 0.01 | 0.01 | 94 | 1012.7 |
| 20260906033103 | 77 | 0 | 0.0 | 1.7 | 0.00 | 0.01 | 0.01 | 94 | 1012.7 |
| 20260906032523 | 77 | 0 | 0.0 | 0.0 | 0.00 | 0.01 | 0.01 | 94 | 1012.8 |
| 20260906032024 | 77 | 0 | 0.0 | 0.0 | 0.00 | 0.01 | 0.01 | 94 | 1012.8 |
| 20260906031542 | 78 | 0 | 0.0 | 0.0 | 0.00 | 0.01 | 0.01 | 94 | 1012.8 |
| 20260906031021 | 78 | 0 | 0.0 | 0.0 | 0.00 | 0.01 | 0.01 | 94 | 1012.8 |
| 20260906030522 | 78 | 0 | 0.0 | 0.0 | 0.00 | 0.01 | 0.01 | 93 | 1012.7 |
| 20260906030041 | 78 | 0 | 0.0 | 0.0 | 0.00 | 0.01 | 0.01 | 93 | 1012.6 |
| 20260906025524 | 78 | 0 | 0.0 | 1.7 | 0.00 | 0.01 | 0.01 | 93 | 1012.6 |
| 20260906025024 | 78 | 0 | 0.0 | 2.6 | 0.00 | 0.01 | 0.01 | 93 | 1012.7 |
| 20260906024600 | 78 | 0 | 0.0 | 2.6 | 0.00 | 0.01 | 0.01 | 93 | 1012.5 |
| 20260906024027 | 78 | 260 | 0.0 | 2.6 | 0.00 | 0.01 | 0.01 | 93 | 1012.5 |
| 20260906023526 | 78 | 0 | 0.0 | 0.0 | 0.00 | 0.01 | 0.01 | 93 | 1012.6 |
| 20260906023042 | 78 | 0 | 0.0 | 0.0 | 0.00 | 0.01 | 0.01 | 93 | 1012.6 |
| 20260906022523 | 78 | 0 | 0.0 | 0.0 | 0.00 | 0.01 | 0.01 | 93 | 1012.6 |
| 20260906022021 | 78 | 0 | 0.0 | 0.0 | 0.00 | 0.01 | 0.01 | 93 | 1012.6 |
| 20260906021542 | 78 | 0 | 0.0 | 0.0 | 0.00 | 0.01 | 0.01 | 92 | 1012.5 |
| 20260906021018 | 78 | 0 | 0.0 | 0.0 | 0.00 | 0.01 | 0.01 | 93 | 1012.5 |
| 20260906020525 | 78 | 0 | 0.0 | 0.0 | 0.00 | 0.01 | 0.01 | 93 | 1012.4 |
| 20260906020042 | 78 | 0 | 0.0 | 0.0 | 0.00 | 0.01 | 0.01 | 92 | 1012.4 |
| 20260906015521 | 78 | 0 | 0.0 | 0.0 | 0.00 | 0.01 | 0.01 | 91 | 1012.5 |
| 20260906015024 | 79 | 0 | 0.0 | 0.0 | 0.00 | 0.01 | 0.01 | 91 | 1012.6 |
| 20260906014548 | 79 | 0 | 0.0 | 0.0 | 0.00 | 0.01 | 0.01 | 91 | 1012.6 |
| 20260906014025 | 79 | 0 | 0.0 | 0.0 | 0.00 | 0.01 | 0.01 | 91 | 1012.4 |
| 20260906013522 | 80 | 0 | 0.0 | 0.0 | 0.00 | 0.01 | 0.01 | 90 | 1012.3 |
| 20260906013042 | 80 | 0 | 0.0 | 0.0 | 0.00 | 0.01 | 0.01 | 89 | 1012.2 |
| 20260906012522 | 80 | 0 | 0.0 | 0.0 | 0.00 | 0.01 | 0.01 | 89 | 1012.2 |
| 20260906012021 | 80 | 0 | 0.0 | 0.0 | 0.00 | 0.01 | 0.01 | 89 | 1012.1 |
| 20260906011540 | 80 | 0 | 0.0 | 0.0 | 0.00 | 0.01 | 0.01 | 90 | 1011.8 |
| 20260906011023 | 79 | 0 | 0.0 | 0.9 | 0.00 | 0.01 | 0.01 | 90 | 1011.7 |
| 20260906010525 | 80 | 0 | 0.0 | 0.9 | 0.00 | 0.01 | 0.01 | 90 | 1011.8 |
| 20260906010052 | 80 | 0 | 0.0 | 0.9 | 0.00 | 0.01 | 0.01 | 89 | 1011.8 |
| 20260906005525 | 81 | 0 | 0.0 | 0.9 | 0.00 | 0.01 | 0.01 | 87 | 1011.8 |
| 20260906005025 | 81 | 0 | 0.0 | 0.9 | 0.00 | 0.01 | 0.01 | 86 | 1011.8 |
| 20260906004543 | 82 | 0 | 0.0 | 2.6 | 0.00 | 0.01 | 0.01 | 85 | 1011.9 |
| 20260906004026 | 82 | 0 | 0.0 | 2.6 | 0.00 | 0.01 | 0.01 | 85 | 1011.8 |
| 20260906003520 | 82 | 260 | 0.9 | 3.5 | 0.00 | 0.01 | 0.01 | 85 | 1011.8 |
| 20260906003053 | 82 | 260 | 1.7 | 3.5 | 0.00 | 0.01 | 0.01 | 85 | 1011.8 |
| 20260906002518 | 82 | 260 | 1.7 | 3.5 | 0.00 | 0.01 | 0.01 | 84 | 1011.7 |
| 20260906002025 | 83 | 267 | 0.9 | 2.6 | 0.00 | 0.01 | 0.01 | 83 | 1011.7 |
| 20260906001549 | 83 | 0 | 0.0 | 5.2 | 0.00 | 0.01 | 0.01 | 83 | 1011.6 |
| 20260906001025 | 83 | 267 | 1.7 | 5.2 | 0.00 | 0.01 | 0.01 | 83 | 1011.7 |
| 20260906000525 | 83 | 0 | 1.7 | 6.1 | 0.00 | 0.01 | 0.01 | 82 | 1011.7 |
| 20260906000051 | 83 | 268 | 0.9 | 6.1 | 0.00 | 0.01 | 0.01 | 82 | 1011.5 |
| 20260905235524 | 84 | 261 | 3.5 | 6.1 | 0.00 | 0.01 | 0.01 | 82 | 1011.6 |
| 20260905235024 | 84 | 295 | 2.6 | 6.1 | 0.00 | 0.01 | 0.01 | 81 | 1011.5 |